Brownsville, TX

5:03 PM CDT on August 20, 2017 (GMT -0500)
Brownsville-South Padre I International

Weather History for KBRO - November, 2012

Change the Weather History Date:

Thursday, November 1, 2012

  Actual Average Record
Temperature  
Mean Temperature 77 °F 73 °F  
Max Temperature 87 °F 83 °F 98 °F (1906)
Min Temperature 67 °F 63 °F 41 °F (1993)
Degree Days  
Heating Degree Days 0 1  
Month to date heating degree days 0 1  
Since 1 July heating degree days 2 5  
Cooling Degree Days 12 9  
Month to date cooling degree days 12 9  
Year to date cooling degree days 4445 3774  
Growing Degree Days 26 (Base 50)    
Moisture  
Dew Point 65 °F    
Average Humidity 67    
Maximum Humidity 97    
Minimum Humidity 37    
Precipitation  
Precipitation 0.00 in 0.08 in 1.63 in (1919)
Month to date precipitation 0.00 0.08  
Year to date precipitation 20.92 24.55  
Sea Level Pressure  
Sea Level Pressure 30.01 in    
Wind  
Wind Speed 6 mph (SE)    
Max Wind Speed 15 mph    
Max Gust Speed 20 mph    
Visibility 10 miles    
Events      
T = Trace of Precipitation, MM = Missing Value Source: NWS Daily Summary

Daily Weather History Graph

Daily Weather History Graph

Search for Another Location

Airport or City:

Trip Planner

Search our weather history database for the weather conditions in past years. The results will help you decide how hot, cold, wet, or windy it might be!

Date:

Astronomy

Nov. 01, 2012 Rise Set
Actual Time 7:38 AM CDT 6:47 PM CDT
Civil Twilight 7:14 AM CDT 7:11 PM CDT
Nautical Twilight 6:47 AM CDT 7:38 PM CDT
Astronomical Twilight 6:20 AM CDT 8:05 PM CDT
Moon 8:57 PM CDT (11/1) 10:00 AM CDT (11/1)
Length of Visible Light 11h 56m
Length of Day
11h 09m
Waning Gibbous, 93% of the Moon is Illuminated
Nov 1
Waning Gibbous
Nov 6
Last Quarter
Nov 13
New
Nov 20
First Quarter
Nov 28
Full

Hourly Weather History & Observations

Time (CDT) Temp. Heat Index Dew Point Humidity Pressure Visibility Wind Dir Wind Speed Gust Speed Precip Events Conditions
12:53 AM 71.1 °F - 69.1 °F 93% 30.01 in 10.0 mi SE 4.6 mph - N/A   Clear
1:53 AM 71.1 °F - 69.1 °F 93% 30.01 in 10.0 mi SE 3.5 mph - N/A   Clear
2:53 AM 70.0 °F - 68.0 °F 93% 30.00 in 10.0 mi SSE 3.5 mph - N/A   Clear
3:53 AM 69.1 °F - 66.9 °F 93% 29.99 in 10.0 mi SSE 4.6 mph - N/A   Clear
4:53 AM 69.1 °F - 66.9 °F 93% 29.99 in 10.0 mi SSE 4.6 mph - N/A   Clear
5:53 AM 68.0 °F - 66.9 °F 96% 29.99 in 9.0 mi Calm Calm - N/A   Clear
6:53 AM 69.1 °F - 68.0 °F 96% 30.00 in 9.0 mi Calm Calm - N/A   Clear
7:53 AM 68.0 °F - 66.9 °F 96% 30.02 in 4.0 mi Calm Calm - N/A   Clear
8:51 AM 69.8 °F - 66.2 °F 88% 30.05 in 10.0 mi East 9.2 mph - N/A   Mostly Cloudy
8:53 AM 69.1 °F - 66.9 °F 93% 30.05 in 10.0 mi East 10.4 mph - N/A   Mostly Cloudy
9:26 AM 71.6 °F - 64.4 °F 78% 30.06 in 10.0 mi East 10.4 mph - N/A   Scattered Clouds
9:39 AM 73.4 °F - 64.4 °F 73% 30.06 in 10.0 mi ESE 8.1 mph - N/A   Mostly Cloudy
9:53 AM 73.9 °F - 64.0 °F 71% 30.05 in 10.0 mi ESE 6.9 mph - N/A   Scattered Clouds
10:53 AM 78.1 °F - 63.0 °F 60% 30.08 in 10.0 mi ESE 10.4 mph - N/A   Overcast
11:53 AM 81.0 °F 81.9 °F 62.1 °F 52% 30.07 in 10.0 mi SE 5.8 mph - N/A   Clear
12:53 PM 84.9 °F 86.1 °F 64.0 °F 49% 30.04 in 10.0 mi East 9.2 mph - N/A   Clear
1:53 PM 86.0 °F 84.9 °F 57.0 °F 37% 30.01 in 10.0 mi East 6.9 mph - N/A   Clear
2:53 PM 84.9 °F 85.4 °F 62.1 °F 46% 29.99 in 10.0 mi SE 10.4 mph - N/A   Clear
3:53 PM 86.0 °F 85.0 °F 57.9 °F 38% 29.97 in 10.0 mi SE 10.4 mph - N/A   Clear
4:53 PM 84.9 °F 86.1 °F 64.0 °F 49% 29.97 in 10.0 mi East 11.5 mph - N/A   Clear
5:53 PM 80.1 °F 81.7 °F 64.0 °F 58% 29.97 in 10.0 mi ESE 9.2 mph - N/A   Clear
6:53 PM 75.9 °F - 64.9 °F 69% 29.98 in 10.0 mi ESE 6.9 mph - N/A   Clear
7:53 PM 73.0 °F - 64.9 °F 76% 29.99 in 10.0 mi SE 6.9 mph - N/A   Clear
8:53 PM 72.0 °F - 64.9 °F 78% 30.00 in 10.0 mi ESE 5.8 mph - N/A   Clear
9:53 PM 71.1 °F - 66.0 °F 84% 30.01 in 10.0 mi ESE 3.5 mph - N/A   Clear
10:53 PM 69.1 °F - 66.0 °F 90% 30.01 in 10.0 mi South 3.5 mph - N/A   Clear
11:53 PM 70.0 °F - 66.9 °F 90% 30.01 in 10.0 mi SSE 3.5 mph - N/A   Clear